Home > Weather > Aliso Viejo > Past weeks

Flag for U.S.A. Weather for the Past 2 Weeks in Aliso Viejo, California, U.S.A.

Now
63 °F

Clear.


Feels Like: 63 °F
Forecast: 49 / 80 °F
Wind: No wind

Location: John Wayne Airport-Orange County Airport

Current Time: Feb 6, 2016 at 9:15:22 PM

Latest Report: Feb 6, 2016 at 7:53 PM


Visibility: 10 mi

Pressure: 30.14 "Hg

Humidity: 47%

Dew point: 42 °F

Location of Aliso ViejoLocation

Historic Weather in Aliso Viejo — Graph

°F

Aliso Viejo Temperature Yesterday

Maximum temperature yesterday: 78 °F (at 1:53 PM)
Minimum temperature yesterday: 47 °F (at 4:53 AM)
Average temperature yesterday: 65 °F

High & Low Weather Summary for the Past Weeks

 TemperatureHumidityPressure
High78 °F (Feb 5, 1:53 PM)100% (Jan 31, 9:00 AM)30.36 "Hg (Jan 31, 9:00 AM)
Low37 °F (Feb 2, 4:53 AM)12% (Feb 5, 11:53 AM)29.64 "Hg (Jan 31, 1:53 PM)
Average57 °F57%30.12 "Hg
* Reported Jan 22 7:53 PM — Feb 6 7:53 PM, Aliso Viejo, Weather by CustomWeather, © 2016

Note: Actual official high and low records may vary slightly from our data, if they occured in-between our weather recording intervals... More about our weather records

Advertising

Aliso Viejo Weather History for the Previous 24 Hours

 ConditionsComfort  
Time TempWeatherWind HumidityBarometerVisibility
7:53 PM
Sat, Feb 6
63 °FClear.No wind47%30.14 "Hg10 mi
6:53 PM64 °FClear.No wind43%30.14 "Hg10 mi
5:53 PM66 °FClear.No wind42%30.12 "Hg10 mi
4:53 PM68 °FSunny.7 mph39%30.11 "Hg10 mi
3:53 PM73 °FSunny.6 mph23%30.11 "Hg10 mi
2:53 PM74 °FSunny.7 mph18%30.12 "Hg10 mi
1:53 PM75 °FSunny.10 mph15%30.14 "Hg10 mi
12:53 PM78 °FSunny.No wind13%30.17 "Hg10 mi
11:53 AM74 °FSunny.3 mph15%30.22 "Hg10 mi
10:53 AM71 °FSunny.3 mph20%30.25 "Hg10 mi
9:53 AM66 °FSunny.6 mph26%30.27 "Hg10 mi
8:53 AM63 °FSunny.3 mph25%30.25 "Hg10 mi
7:53 AM55 °FSunny.No wind37%30.25 "Hg10 mi
6:53 AM50 °FSunny.No wind43%30.24 "Hg10 mi
5:53 AM50 °FClear.No wind44%30.22 "Hg10 mi
4:53 AM50 °FClear.No wind43%30.23 "Hg10 mi
3:53 AM51 °FClear.3 mph42%30.25 "Hg10 mi
2:53 AM52 °FClear.No wind41%30.24 "Hg10 mi
1:53 AM52 °FClear.No wind41%30.27 "Hg10 mi
12:53 AM55 °FClear.No wind34%30.26 "Hg10 mi
11:53 PM
Fri, Feb 5
56 °FClear.No wind32%30.25 "Hg10 mi
10:53 PM63 °FClear.No wind20%30.25 "Hg10 mi
9:53 PM62 °FClear.6 mph20%30.25 "Hg10 mi
Weather by CustomWeather, © 2016

See weather overviewHow to use our weather pages